San Francisco State Invitational

September 10, 2021
|
Speedway Meadow, Golden Gate Park San Francisco, CA 94118
HOST: San Francisco State University   DIRECTOR: Tom Lyons   TIMING: Red Cap Timing   REFEREE: Chuck Buettner   STARTER: Chuck Buettner  

Women 6k CC Team Results (6k)
Top↑

PL Team Total Time Avg. Time Score 1 2 3 4 5 6 7
1 Simon Fraser 1:51:23 22:16 36 1 4 6 7 18 22 24
2 Chico State 1:52:16 22:27 60 9 10 11 13 17 21 27
3 Academy of Art 1:53:11 22:38 84 3 5 15 29 32    
4 Concordia (Cal.) 1:53:38 22:43 96 2 14 20 26 34 36 37
5 Cal St. East Bay 1:56:06 23:13 146 12 19 31 41 43 51 54
6 Santa Clara 1:58:03 23:36 185 23 28 33 44 57 59  
7 San Jose St. 2:13:17 26:39 196 8 16 25 73 74 76  
8 Cal St. Monterey Bay 1:59:06 23:49 208 35 39 40 42 52 58 64
9 St. Mary's (Cal.) 2:01:06 24:13 241 38 48 49 50 56 63 69
10 San Francisco St. 2:02:43 24:32 251 30 46 53 60 62 71  
11 William Jessup 2:08:28 25:41 294 45 47 65 67 70    
12 Sonoma St. 2:13:36 26:43 322 55 61 66 68 72 75  

Women 6k CC Individual Results (6k)
Top↑

PL NAME YEAR TEAM Avg. Mile TIME SCORE
1 Olivia Willett JR-3 Simon Fraser 05:53.4 21:57.6 1
2 Jori Paradis SO-2 Concordia (Cal.) 05:53.8 21:59.3 2
3 Natalia Novak SR-4 Academy of Art 05:54.9 22:03.4 3
4 Naomy Lagat ? Menlo College 05:55.2 22:04.5
5 Alison Andrews-Paul SR-4 Simon Fraser 05:56.9 22:10.6 4
6 Audrey Rosencrans JR-3 Academy of Art 05:57.4 22:12.5 5
7 Megan Roxby JR-3 Simon Fraser 05:57.7 22:13.6 6
8 Grace Chalk SO-2 Simon Fraser 05:58.5 22:16.7 7
9 Jicel Fernandez JR-3 San Jose St. 05:59.2 22:19.3 8
10 Hannah Wirth FR-1 Chico State 05:59.4 22:20.0 9
11 Katie Hawley JR-3 Chico State 06:00.0 22:22.5 10
12 Hannah Ryan JR-3 Chico State 06:00.6 22:24.4 11
13 Chase Worthen JR-3 Cal St. East Bay 06:01.9 22:29.2 12
14 Gracie Dupuis SO-2 Chico State 06:01.9 22:29.4 13
15 Porshe Eismann FR-1 Concordia (Cal.) 06:02.8 22:32.7 14
16 Hasna Kaarour SR-4 Academy of Art 06:03.2 22:34.4 15
17 Daniela Salazar JR-3 San Jose St. 06:04.4 22:38.6 16
18 Jaclyn Denham FR-1 Chico State 06:04.8 22:40.3 17
19 Claire Noort JR-3 Simon Fraser 06:06.2 22:45.6 18
20 Amanda Navarro JR-3 Cal St. East Bay 06:06.4 22:46.3 19
21 Madison Templeman FR-1 Concordia (Cal.) 06:06.7 22:47.4 20
22 Marissa D'Atri JR-3 Chico State 06:08.4 22:53.8 21
23 Ella Marion FR-1 Simon Fraser 06:09.4 22:57.5 22
24 Sasha Codiga SO-2 Santa Clara 06:10.1 23:00.0 23
25 Emily Chilton JR-3 Simon Fraser 06:10.3 23:00.7 24
26 Milena Kalisch FR-1 Simon Fraser 06:10.3 23:00.8
27 Kate Cameron FR-1 Simon Fraser 06:10.4 23:01.1
28 Juliette Noyer SO-2 San Jose St. 06:10.9 23:02.9 25
29 Angelique Antonini FR-1 Concordia (Cal.) 06:11.2 23:04.2 26
30 Paulina Guerrero ? Chico State 06:11.5 23:05.1 27
31 Hannah Covington JR-3 Santa Clara 06:12.1 23:07.5 28
32 Alexi Steinmaus FR-1 Chico State 06:12.4 23:08.5
33 Lina Hanich FR-1 Academy of Art 06:12.4 23:08.6 29
34 Katya Candray SO-2 San Francisco St. 06:13.2 23:11.4 30
35 Leza Cassidy JR-3 Cal St. East Bay 06:13.2 23:11.7 31
36 Delanie Dykes SO-2 Academy of Art 06:13.5 23:12.8 32
37 Kayla Neumann JR-3 Santa Clara 06:13.9 23:14.2 33
38 Madeline Jahshan FR-1 Concordia (Cal.) 06:14.1 23:15.1 34
39 Brooke Roy JR-3 Cal St. Monterey Bay 06:15.6 23:20.5 35
40 Alana Hurley SO-2 Concordia (Cal.) 06:15.9 23:21.7 36
41 Jacqueline Cascione SO-2 Chico State 06:16.5 23:24.0
42 Abbey Lair Freshman Unattached 06:17.4 23:27.3
43 Madilyn Herrera SO-2 Concordia (Cal.) 06:19.0 23:33.3 37
44 Hannah Faust FR-1 Concordia (Cal.) 06:20.7 23:39.5
45 Aushmitha Grewel JR-3 St. Mary's (Cal.) 06:21.3 23:41.8 38
46 Grace Gaddy Freshman Unattached 06:21.4 23:42.2
47 Lisa Irvine FR-1 Cal St. Monterey Bay 06:22.0 23:44.3 39
48 Hannah Marin JR-3 Cal St. Monterey Bay 06:22.0 23:44.5 40
49 Hayley Killion FR-1 Concordia (Cal.) 06:22.4 23:45.8
50 Kimberly Lima FR-1 Cal St. East Bay 06:22.6 23:46.5 41
51 Natalie Narper FR-1 Cal St. Monterey Bay 06:23.4 23:49.7 42
52 Melissa Sosa FR-1 Cal St. East Bay 06:24.2 23:52.6 43
53 Jasmin Peterman FR-1 Santa Clara 06:26.3 24:00.5 44
54 Esmeralda Aguayo JR-3 Chico State 06:26.7 24:01.8
55 Azalea Prince FR-1 William Jessup 06:27.4 24:04.6 45
56 Stephanie Martinez SR-4 San Francisco St. 06:27.8 24:05.9 46
57 Jennifer Ruiz FR-1 Chico State 06:28.0 24:06.7
58 Natalie Loo JR-3 William Jessup 06:28.0 24:06.8 47
59 Trinity Santana SO-2 St. Mary's (Cal.) 06:28.5 24:08.5 48
60 Ally Sullivan JR-3 St. Mary's (Cal.) 06:29.4 24:11.9 49
61 Adriana Gil SO-2 Concordia (Cal.) 06:31.2 24:18.8
62 Sofia Cueves SO-2 St. Mary's (Cal.) 06:32.5 24:23.5 50
63 Sophie Peletier FR-1 Chico State 06:32.9 24:25.0
64 Claire Fisher SR-4 Cal St. East Bay 06:33.2 24:26.2 51
65 Angelee Berganio FR-1 Cal St. Monterey Bay 06:33.6 24:27.5 52
66 Marina Dear Freshman Unattached Chico 06:34.5 24:30.8
67 Daisy Salinas FR-1 San Francisco St. 06:35.8 24:35.8 53
68 Madeline Acosta FR-1 Cal St. East Bay 06:36.8 24:39.5 54
69 Abby Ribet FR-1 Sonoma St. 06:37.0 24:40.3 55
70 Mariam Samara SO-2 St. Mary's (Cal.) 06:37.2 24:41.0 56
71 Claire Cocales JR-3 Santa Clara 06:37.5 24:42.0 57
72 Sierra Shaver FR-1 Cal St. Monterey Bay 06:37.6 24:42.5 58
73 Natalia Muro Freshman Unattached-Chico 06:38.2 24:44.6
74 Kelli Vierra FR-1 Chico State 06:38.5 24:45.9
75 Rocky Doering FR-1 Santa Clara 06:42.4 25:00.5 59
76 Madeleine Liem FR-1 San Francisco St. 06:44.7 25:09.0 60
77 Avery Lambrite JR-3 Chico State 06:50.1 25:29.0
78 Madison Petersen FR-1 Sonoma St. 06:51.4 25:33.8 61
79 Kylie Michaels ? Unattached 06:52.1 25:36.6
80 Olivia Renfro FR-1 San Francisco St. 06:53.4 25:41.3 62
81 Callie Buchanan FR-1 St. Mary's (Cal.) 06:54.5 25:45.5 63
82 Nahkia Clements FR-1 Chico State 06:55.9 25:50.6
83 Sophia Pearson SR-4 Chico State 06:55.9 25:50.9
84 Kim Tovar FR-1 Cal St. Monterey Bay 06:56.5 25:52.8 64
85 Haley Borjas FR-1 William Jessup 07:00.8 26:09.1 65
86 Natalie Dinin FR-1 Chico State 07:01.6 26:12.2
87 Sara Wenger FR-1 Sonoma St. 07:03.7 26:19.9 66
88 Lacy Ceremony JR-3 William Jessup 07:05.8 26:27.7 67
89 Trinitie Seeber JR-3 Cal St. Monterey Bay 07:08.3 26:37.0
90 Susi Garcia ? Menlo College 07:10.0 26:43.2
91 Alex Doyle FR-1 Sonoma St. 07:11.9 26:50.6 68
92 Ashley Trout FR-1 Cal St. East Bay 07:12.3 26:52.0
93 Samantha Schaumam 2025 Unatt-Chico 07:14.3 26:59.5
94 Piper Kunesh FR-1 St. Mary's (Cal.) 07:15.0 27:01.8 69
95 Rachel Sabbe FR-1 Chico State 07:15.6 27:04.3
96 Hailey Hopkins SO-2 William Jessup 07:25.3 27:40.5 70
97 Ashley O'Toole JR-3 Cal St. Monterey Bay 07:28.4 27:51.8
98 Paisley Todd FR-1 Menlo College 07:30.2 27:58.7
99 Sydney Seyer FR-1 San Francisco St. 07:30.8 28:00.9 71
100 Nancy Vasquez FR-1 Sonoma St. 08:06.0 30:12.2 72
101 Kaiya Johnson SO-2 San Jose St. 08:18.6 30:59.2 73
102 Yleana Lopez Freshman San Jose St. 09:11.8 34:17.4 74
103 Madison Armstrong FR-1 Sonoma St. 09:28.5 35:19.9 75
104 Gabrielle Spencer SO-2 San Jose St. 10:37.4 39:36.8 76
0 Ariel Van Riper SO-2 Cal St. East Bay DNF
0 Jackie Cruz SO-2 Santa Clara DNF
0 Kailee Johnson FR-1 Santa Clara DNF
0 Zoe Baker-Cohn SO-2 Sonoma St. DNF

Men 8k CC Team Results (8k)
Top↑

PL Team Total Time Avg. Time Score 1 2 3 4 5 6 7
1 Chico State 2:04:33 24:54 24 2 3 5 6 8 9 11
2 Simon Fraser 2:06:09 25:13 49 1 7 10 15 16 20 26
3 Concordia (Cal.) 2:10:13 26:02 123 12 21 27 29 34 35 47
4 Academy of Art 2:13:46 26:45 150 4 13 19 52 62    
5 San Francisco St. 2:11:13 26:14 150 18 28 32 33 39 43 44
6 Santa Clara 2:12:38 26:31 160 14 17 24 49 56 57  
7 St. Mary's (Cal.) 2:12:04 26:24 166 23 25 30 37 51 54 55
8 Cal St. Monterey Bay 2:12:28 26:29 186 22 36 40 42 46 64 65
9 Menlo College 2:16:08 27:13 230 31 41 48 50 60 63 66
10 William Jessup 2:24:32 28:54 290 45 58 59 61 67 68 70
11 San Jose St. 3:04:20 36:52 303 38 53 69 71 72 73 74

Men 8k CC Individual Results (8k)
Top↑

PL NAME YEAR TEAM Avg. Mile TIME SCORE
1 Aaron Ahl JR-3 Simon Fraser 04:55.8 24:30.6 1
2 Brayden McLaughlin SO-2 Chico State 04:57.3 24:37.9 2
3 Jose Pina Senior Unattached 04:58.5 24:44.1
4 Omar Alvarez-Hernandez FR-1 Chico State 04:59.3 24:48.0 3
5 Saba Khvichava JR-3 Academy of Art 04:59.5 24:48.7 4
6 Charlie Giannini SO-2 Chico State 05:01.8 25:00.5 5
7 Matthew Herrera SR-4 Chico State 05:01.9 25:00.8 6
8 Charlie Dannatt SO-2 Simon Fraser 05:02.4 25:03.4 7
9 Daniel Hernandez FR-1 Chico State 05:03.0 25:06.2 8
10 Dylan White JR-3 Chico State 05:05.1 25:16.7 9
11 Scott Arndt FR-1 Simon Fraser 05:05.8 25:20.1 10
12 Joshua O'Neill SO-2 Chico State 05:06.4 25:23.3 11
13 Angel Aguirre SR-4 Concordia (Cal.) 05:08.6 25:34.0 12
14 Owen Day JR-3 Academy of Art 05:09.0 25:36.2 13
15 Ishaan Singh FR-1 Santa Clara 05:09.1 25:36.8 14
16 Sebastian Brinkman JR-3 Simon Fraser 05:09.3 25:37.8 15
17 Ephrem Mekonnen SO-2 Simon Fraser 05:09.3 25:37.8 16
18 Raymond Lopez SR-4 Chico State 05:09.5 25:38.8
19 Matthew GORDON 2025 Chico-Unnat 05:10.0 25:41.3
20 Bennett Woodward SO-2 Chico State 05:10.3 25:42.8
21 Jack Rose Senior Unattached 05:10.5 25:43.8
22 Oliver Branham-Upton FR-1 Santa Clara 05:10.9 25:45.7 17
23 Jacob Niles SR-4 San Francisco St. 05:11.0 25:46.2 18
24 Peter Normann SR-4 Chico State 05:11.3 25:47.8
25 Hudson Lockette JR-3 Academy of Art 05:11.5 25:48.4 19
26 Aiden Good FR-1 Simon Fraser 05:11.9 25:50.6 20
27 Jack Emanuel SR-4 Chico State 05:12.1 25:51.6
28 Joshua Scheetz SO-2 Concordia (Cal.) 05:12.2 25:52.1 21
29 Hunter Sweet SO-2 Chico State 05:12.3 25:52.5
30 Nathan Garcia JR-3 Cal St. Monterey Bay 05:12.3 25:52.5 22
31 Michael Ramirez JR-3 Chico State 05:12.6 25:54.0
32 Blaine Reynolds FR-1 St. Mary's (Cal.) 05:12.7 25:54.8 23
33 Dominic Baciocco FR-1 Santa Clara 05:13.0 25:56.0 24
34 Muhammed Ahmed FR-1 St. Mary's (Cal.) 05:13.1 25:56.3 25
35 Jose Castro FR-1 Simon Fraser 05:14.0 26:01.0 26
36 Anders Beil Freshman Unattached - Chico 05:15.1 26:06.3
37 Jacob Dunagin JR-3 Concordia (Cal.) 05:15.8 26:09.7 27
38 Kevin Lehr SR-4 San Francisco St. 05:15.8 26:09.9 28
39 Rory Abberton SR-4 Chico State 05:16.5 26:13.2
40 Jason St. Pierre SO-2 Concordia (Cal.) 05:16.6 26:14.2 29
41 Curtis Volf FR-1 St. Mary's (Cal.) 05:16.7 26:14.2 30
42 Jacob Kipyego ? Menlo College 05:17.0 26:16.0 31
43 Brian Hastings JR-3 Chico State 05:17.2 26:16.7
44 Ben Heagler FR-1 San Francisco St. 05:18.2 26:21.9 32
45 Jose Tores SO-2 San Francisco St. 05:18.4 26:22.9 33
46 Juan Sebastian Garcia FR-1 Concordia (Cal.) 05:18.6 26:23.6 34
47 Fernando Aguirre FR-1 Concordia (Cal.) 05:18.6 26:23.9 35
48 Jaime Gonzalez FR-1 Cal St. Monterey Bay 05:19.5 26:28.3 36
49 Luke Bland FR-1 St. Mary's (Cal.) 05:19.6 26:29.0 37
50 Omar Pina SO-2 San Jose St. 05:20.1 26:31.5 38
51 Evan Jackson FR-1 San Francisco St. 05:20.4 26:32.6 39
52 Connor Farrow SO-2 Cal St. Monterey Bay 05:20.4 26:32.8 40
53 Klaus Quinonez ? Unattached 05:20.4 26:32.9
54 Connor Dmytriw ? Menlo College 05:21.4 26:38.0 41
55 Ryan Bradley SO-2 Cal St. Monterey Bay 05:21.6 26:38.7 42
56 Gary Valle SO-2 San Francisco St. 05:22.2 26:41.7 43
57 Finn Tyvoll SO-2 San Francisco St. 05:22.9 26:45.4 44
58 Damian Rivas Sophomore Unattached 05:23.6 26:48.6
59 Lucas Vigil SR-4 San Francisco St. 05:23.9 26:50.1
60 Bailey Williams SO-2 San Francisco St. 05:24.0 26:51.0
61 Ryan Hanks SR-4 William Jessup 05:24.2 26:51.6 45
62 Diego Denson FR-1 Cal St. Monterey Bay 05:25.1 26:56.1 46
63 Colin Bervig FR-1 Concordia (Cal.) 05:25.6 26:58.5 47
64 Edgar Ortega Freshman Unattached 05:26.4 27:02.5
65 Braden Ahl FR-1 Simon Fraser 05:26.9 27:04.9
66 Parker Smith FR-1 San Francisco St. 05:27.7 27:09.1
67 Connor Oldham ? Menlo College 05:28.1 27:11.0 48
68 Dustin Berger FR-1 Concordia (Cal.) 05:28.3 27:12.0
69 Joey Manahan SO-2 San Francisco St. 05:28.5 27:13.0
70 Brendan Mulvany FR-1 Santa Clara 05:28.7 27:14.0 49
71 Marco Dal Canto FR-1 Chico State 05:29.0 27:15.5
72 Tomas Chapman Junior Simon Fraser 05:29.6 27:18.6
73 Jayden Olea Freshman Unattached 05:29.8 27:19.4
74 Tristan Guerrero ? Menlo College 05:29.8 27:19.7 50
75 Hector Arteaga SR-4 Concordia (Cal.) 05:31.1 27:25.8
76 Erik Carlson FR-1 San Francisco St. 05:31.6 27:28.7
77 Aidan Donovan FR-1 St. Mary's (Cal.) 05:31.9 27:30.0 51
78 Abdelouakil Mustapha JR-3 Academy of Art 05:33.1 27:36.1 52
79 Christian Moreno FR-1 San Jose St. 05:33.4 27:37.5 53
80 Michael Kilgariff JR-3 San Francisco St. 05:33.8 27:39.6
81 David Brito JR-3 Concordia (Cal.) 05:34.5 27:43.0
82 Derek O'Connor FR-1 St. Mary's (Cal.) 05:35.1 27:46.1 54
83 Alex Tait JR-3 San Francisco St. 05:35.4 27:47.4
84 Troy Coulston FR-1 St. Mary's (Cal.) 05:36.6 27:53.6 55
85 Travis Selby 2025 Chico-Unnattached 05:37.8 27:59.2
86 Payton Spurlock ? Unattached 05:38.5 28:03.0
87 Steven Lin FR-1 Santa Clara 05:39.1 28:06.1 56
88 Elliot Ruiz Junior Unattached 05:39.6 28:08.1
89 james lang Sophomore Unattached 05:40.9 28:14.7
90 Dion Dupree SO-2 Santa Clara 05:42.0 28:20.0 57
91 Ian Miller ? Unattached 05:42.2 28:21.0
92 Jacob Bravo FR-1 St. Mary's (Cal.) 05:44.5 28:32.8
93 Austin Shields JR-3 William Jessup 05:45.5 28:37.8 58
94 Nathaniel Chang Sophomore Unattached 05:45.8 28:39.0
95 Luciano Linares JR-3 William Jessup 05:46.4 28:42.3 59
96 Lionel inhphom Freshman Unattached 05:46.6 28:43.3
97 Cole Nutting FR-1 Menlo College 05:46.8 28:44.0 60
98 Josh Spiva FR-1 William Jessup 05:53.1 29:15.4 61
99 Kyle Stevens 2025 Chico-Unatt 05:54.7 29:23.5
100 Isaiah Jimenez SO-2 St. Mary's (Cal.) 05:56.2 29:30.7
101 Elliot Slade SR-4 Academy of Art 06:01.5 29:57.0 62
102 Andrew Abbey ? Menlo College 06:04.4 30:11.7 63
103 Spencer Cochran SO-2 Cal St. Monterey Bay 06:05.3 30:15.9 64
104 Luis Contreras SO-2 Cal St. Monterey Bay 06:09.3 30:35.8 65
105 Shane Fernando FR-1 Menlo College 06:10.9 30:44.1 66
106 Ethan Loomis FR-1 William Jessup 06:15.2 31:05.4 67
107 Jonathan Conklin SO-2 William Jessup 06:17.2 31:15.1 68
108 Felix Welteke FR-1 Menlo College 06:32.2 32:29.8
109 Cecil Ebiwok SR-4 San Jose St. 07:13.3 35:54.4 69
110 Robert Smith FR-1 William Jessup 07:34.9 37:41.6 70
111 Cuauhtemoc Jimenez Senior Unattached 07:58.0 39:36.5
112 Kyle Jankans SO-2 San Jose St. 09:29.0 47:08.7 71
113 Nicholas Harper SR-4 San Jose St. 09:29.0 47:09.1 72
114 Jalen Adams SO-2 San Jose St. 09:33.3 47:30.4 73
115 Richard Dang FR-1 San Jose St. 09:33.3 47:30.4 74
116 Jordan Finister SR-4 San Jose St. 09:33.7 47:32.4
0 Joshua Abrenica FR-1 San Francisco St. DNF
0 Maxwell Eickele FR-1 Cal St. Monterey Bay DNF
0 Benjamin Ronoh ? Menlo College DNF
0 Markus Anderson-Deakin JR-3 Academy of Art DNF
0 Adrian Ramirez SO-2 Cal St. Monterey Bay DNF
0 Carlos Lopez JR-3 Holy Names DNS
0 Roberto Burquez JR-3 Holy Names DNS
0 Blas Ayesa JR-3 Holy Names DNS
0 Eric Inouye JR-3 Holy Names DNS
0 Jackson Brown SO-2 Holy Names DNS
0 Alastair Pardi SO-2 Holy Names DNS
0 Logan McNamar JR-3 Holy Names DNS